Regional Weather Roundup
Issued by NWS Bismarck, ND

Home | Current Version | Previous Version | Text Only | Print | Product List | Glossary On
Versions: 1 2 3 4 5 6 7 8 9 10 11 12 13 14 15 16 17 18 19 20 21 22 23 24 25 26 27 28 29 30 31 32 33 34 35 36 37 38 39 40 41 42 43 44 45 46 47 48 49 50
000
ASUS43 KBIS 301010
RWRBIS

NWR BROADCAST TEXT
NATIONAL WEATHER SERVICE BISMARCK ND
500 AM CDT SAT JUL 30 2016

NOTE: "FAIR" INDICATES FEW OR NO CLOUDS BELOW 12,000 FEET WITH NO
SIGNIFICANT WEATHER AND/OR OBSTRUCTIONS TO VISIBILITY.


CITY           SKY/WX    TMP DP  RH WIND       PRES   REMARKS
WILLISTON      CLEAR     57  54  89 CALM      29.90F
MINOT          MOCLDY    65  61  87 S3        29.90F
MINOT AFB      FOG       55  54  94 S5        29.89F VSB 1/2
BISMARCK       TSTM      65  63  93 VRB6      29.94R FOG
DICKINSON      CLEAR     53  53 100 CALM      29.91S FOG
GARRISON         N/A     63  62  97 SE8       29.91F
HETTINGER ARPT CLEAR     59  55  87 SE5       29.95S
JAMESTOWN      PTCLDY    64  59  83 S9        29.95S
BEACH          FAIR      52  52 100 CALM      29.96S
CARRINGTON     FAIR      63  61  94 SE8       29.95F
HAZEN          PTSUNNY   63  61  94 S10G18    29.93F
LINTON         FAIR      61  59  94 S14       29.96F
MANDAN         TSTM      64  61  88 NE9       29.95R
OAKES            N/A    N/A N/A N/A MISG        N/A
STANLEY        FOG       52  52 100 CALM      29.94F VSB 1/2
WATFORD CITY     N/A    N/A N/A N/A MISG        N/A
$$

CITY           SKY/WX    TMP DP  RH WIND       PRES   REMARKS
GRAND FORKS    LGT RAIN  65  61  87 CALM      29.95F
GRAND FORKS AF CLOUDY    63  61  94 SE5       29.95F
DEVILS LAKE    CLEAR     66  62  87 SE7       29.94F
FARGO          PTCLDY    67  61  81 S8        29.97S
CAVALIER       PTSUNNY   63  59  88 S3        29.94S
GRAFTON        FAIR      61  61 100 CALM      29.96F
GWINNER        CLOUDY    64  61  88 S8        29.98F
LANGDON        FAIR      63  63 100 SE9       29.95F
ROLLA          FAIR      57  57 100 SW5       29.94F
$$

CITY           SKY/WX    TMP DP  RH WIND       PRES   REMARKS
ABERDEEN       PTCLDY    63  56  78 S9        29.98F
MOBRIDGE       PTCLDY    67  57  70 S8        29.93F
BUFFALO          N/A     62  56  80 S3        29.88F
RAPID CITY     CLEAR     53  51  93 CALM      29.97F
GLASGOW        CLEAR     59  53  80 E9        29.88F
SIDNEY         CLEAR     53  47  79 NW5       29.90F
WOLF POINT     CLEAR     57  53  86 E3        29.90F
MILES CITY     CLEAR     63  53  70 E3        29.91F
BAKER          CLEAR     59  54  83 CALM      29.95F
$$

CITY           SKY/WX    TMP DP  RH WIND       PRES   REMARKS
BILLINGS       PTCLDY    65  51  60 CALM      29.92F
GREAT FALLS    CLEAR     65  48  54 S8        29.87F
REGINA         CLEAR     54  52  94 SE6       29.88S
ESTEVAN        CLEAR     57  55  94 S3        29.90S
$$




USA.gov is the U.S. government's official web portal to all federal, state and local government web resources and services.